This is the latest recevied weather packets stored in our database for station/object N8VDS-10. If no packets are shown the sender has not sent any weather packets the latest 10 day(s).
| Time | Temp. | Humidity | Pressure | Rain* | Wind** | Luminosity | Snow |
|---|---|---|---|---|---|---|---|
| 1777697771 | 3.33° C | 80% | 1020.7 hPa | 0 mm | - | 0 W/m² | - |
| 1777697469 | 3.33° C | 79% | 1020.8 hPa | 0 mm | - | 0 W/m² | - |
| 1777697165 | 3.33° C | 79% | 1020.6 hPa | 0 mm | - | 0 W/m² | - |
| 1777696862 | 3.33° C | 78% | 1020.5 hPa | 0 mm | - | 0 W/m² | - |
| 1777696560 | 3.89° C | 78% | 1020.6 hPa | 0 mm | - | 0 W/m² | - |
| 1777696256 | 3.89° C | 76% | 1020.5 hPa | 0 mm | - | 0 W/m² | - |
| 1777695951 | 3.89° C | 72% | 1020.5 hPa | 0 mm | - | 0 W/m² | - |
| 1777695649 | 4.44° C | 69% | 1020.5 hPa | 0 mm | - | 0 W/m² | - |
| 1777695347 | 4.44° C | 62% | 1020.5 hPa | 0 mm | - | 0 W/m² | - |
| 1777695044 | 5° C | 61% | 1020.5 hPa | 0 mm | - | 0 W/m² | - |
| 1777694740 | 5° C | 60% | 1020.6 hPa | 0 mm | - | 0 W/m² | - |
| 1777694438 | 5° C | 58% | 1020.5 hPa | 0 mm | - | 0 W/m² | - |
| 1777694133 | 5° C | 56% | 1020.4 hPa | 0 mm | - | 0 W/m² | - |
| 1777693831 | 5° C | 54% | 1020.4 hPa | 0 mm | - | 0 W/m² | - |
| 1777693529 | 5° C | 54% | 1020.4 hPa | 0 mm | - | 0 W/m² | - |
| 1777693227 | 5° C | 53% | 1020.2 hPa | 0 mm | - | 0 W/m² | - |
| 1777692925 | 5° C | 54% | 1020.2 hPa | 0 mm | - | 0 W/m² | - |
| 1777692622 | 5° C | 53% | 1020.3 hPa | 0 mm | - | 0 W/m² | - |
| 1777692317 | 5° C | 54% | 1020.4 hPa | 0 mm | - | 0 W/m² | - |
| 1777692015 | 5° C | 55% | 1020.3 hPa | 0 mm | - | 0 W/m² | - |
| 1777691712 | 5° C | 53% | 1020.2 hPa | 0 mm | - | 0 W/m² | - |
| 1777691410 | 5° C | 55% | 1020.3 hPa | 0 mm | - | 0 W/m² | - |
| 1777691108 | 5° C | 55% | 1020.2 hPa | 0 mm | - | 0 W/m² | - |
| 1777690806 | 5° C | 54% | 1020.3 hPa | 0 mm | - | 0 W/m² | - |
| 1777690502 | 5° C | 55% | 1020.4 hPa | 0 mm | - | 0 W/m² | - |
* Rain latest hour (hover to see other rain measurements)
** Current wind speed in m/s (hover to see current wind gust speed)